�������l�o���
Date,Time,MP-1(��Sv/h),MP-2(��Sv/h),MP-3(��Sv/h),MP-4(��Sv/h),MP-5(��Sv/h),MP-6(��Sv/h),MP-7(��Sv/h),MP-8(��Sv/h),����,����(m/s),���J
2018/05/11,00:00,0.809,1.291,0.839,1.552,1.052,0.466,0.820,0.789,���k��,5.3,��
2018/05/11,00:10,0.808,1.290,0.838,1.552,1.052,0.467,0.821,0.789,���k��,5.8,��
2018/05/11,00:20,0.807,1.290,0.840,1.553,1.051,0.466,0.821,0.789,���k��,5.3,��
2018/05/11,00:30,0.809,1.290,0.841,1.551,1.054,0.464,0.822,0.790,�k��,4.1,��
2018/05/11,00:40,0.808,1.294,0.838,1.552,1.053,0.465,0.821,0.790,���k��,2.8,��
2018/05/11,00:50,0.809,1.289,0.842,1.550,1.053,0.466,0.821,0.789,���k��,3.8,��
2018/05/11,01:00,0.810,1.292,0.841,1.552,1.053,0.466,0.822,0.788,���k��,3.2,��
2018/05/11,01:10,0.810,1.291,0.839,1.551,1.052,0.465,0.821,0.790,���k��,2.3,��
2018/05/11,01:20,0.808,1.289,0.840,1.551,1.052,0.465,0.822,0.789,��,3.7,��
2018/05/11,01:30,0.809,1.292,0.840,1.550,1.053,0.466,0.823,0.790,��,4.2,��
2018/05/11,01:40,0.808,1.291,0.837,1.552,1.053,0.465,0.821,0.790,��,6.8,��
2018/05/11,01:50,0.810,1.290,0.838,1.551,1.055,0.468,0.822,0.788,��,7.9,��
2018/05/11,02:00,0.810,1.291,0.839,1.554,1.053,0.466,0.822,0.790,��,6.1,��
2018/05/11,02:10,0.810,1.291,0.840,1.553,1.053,0.465,0.823,0.791,���k��,6.8,��
2018/05/11,02:20,0.811,1.291,0.841,1.553,1.052,0.467,0.823,0.789,���k��,6.1,��
2018/05/11,02:30,0.810,1.289,0.840,1.553,1.052,0.466,0.824,0.789,��,7.8,��
2018/05/11,02:40,0.811,1.292,0.838,1.552,1.054,0.467,0.824,0.791,��,9.6,��
2018/05/11,02:50,0.811,1.292,0.841,1.554,1.053,0.465,0.822,0.790,��,10.6,��
2018/05/11,03:00,0.810,1.290,0.841,1.553,1.053,0.466,0.825,0.791,��,10.5,��
2018/05/11,03:10,0.810,1.294,0.842,1.554,1.053,0.468,0.825,0.789,��,7.7,��
2018/05/11,03:20,0.810,1.290,0.843,1.555,1.054,0.465,0.824,0.791,��,7.2,��
2018/05/11,03:30,0.812,1.291,0.840,1.554,1.054,0.466,0.826,0.791,��,6.2,��
2018/05/11,03:40,0.812,1.291,0.841,1.555,1.057,0.466,0.823,0.792,��,3.9,��
2018/05/11,03:50,0.810,1.292,0.841,1.556,1.056,0.468,0.824,0.791,���k��,5.8,��
2018/05/11,04:00,0.811,1.290,0.841,1.556,1.055,0.468,0.825,0.789,��,4.7,��
2018/05/11,04:10,0.811,1.292,0.839,1.556,1.053,0.466,0.825,0.792,��,4.8,��
2018/05/11,04:20,0.811,1.294,0.839,1.556,1.054,0.467,0.824,0.792,��,4.8,��
2018/05/11,04:30,0.813,1.293,0.841,1.555,1.054,0.467,0.824,0.792,���쐼,4.7,��
2018/05/11,04:40,0.811,1.292,0.843,1.558,1.056,0.468,0.822,0.791,��,5.8,��
2018/05/11,04:50,0.814,1.293,0.842,1.556,1.055,0.466,0.823,0.790,��,6.3,��
2018/05/11,05:00,0.812,1.294,0.842,1.557,1.054,0.467,0.823,0.790,��,5.1,��
2018/05/11,05:10,0.812,1.293,0.842,1.557,1.057,0.466,0.824,0.792,��,7.5,��
2018/05/11,05:20,0.812,1.292,0.842,1.558,1.055,0.467,0.824,0.792,��,7.9,��
2018/05/11,05:30,0.811,1.295,0.842,1.558,1.057,0.468,0.824,0.792,��,8.3,��
2018/05/11,05:40,0.811,1.296,0.842,1.561,1.059,0.468,0.822,0.791,��,8.8,��
2018/05/11,05:50,0.810,1.295,0.841,1.560,1.057,0.468,0.823,0.791,���쐼,7.6,��
2018/05/11,06:00,0.812,1.295,0.843,1.556,1.056,0.468,0.823,0.791,���쐼,3.9,��
2018/05/11,06:10,0.813,1.296,0.842,1.559,1.059,0.467,0.824,0.792,���쐼,1.7,��
2018/05/11,06:20,0.813,1.297,0.840,1.557,1.058,0.469,0.825,0.791,�쐼,2.0,��
2018/05/11,06:30,0.813,1.293,0.842,1.561,1.058,0.469,0.826,0.793,�쐼,2.6,��
2018/05/11,06:40,0.812,1.297,0.843,1.560,1.059,0.470,0.827,0.791,�쐼,4.1,��
2018/05/11,06:50,0.814,1.295,0.844,1.561,1.060,0.470,0.826,0.792,���쐼,6.0,��
2018/05/11,07:00,0.813,1.295,0.843,1.562,1.060,0.469,0.826,0.792,��,4.8,��
2018/05/11,07:10,0.815,1.297,0.843,1.560,1.060,0.468,0.826,0.793,���k��,2.3,��
2018/05/11,07:20,0.815,1.295,0.844,1.560,1.058,0.468,0.827,0.792,�쓌,0.6,��
2018/05/11,07:30,0.815,1.295,0.845,1.562,1.061,0.466,0.825,0.792,��,2.0,��
2018/05/11,07:40,0.816,1.294,0.845,1.561,1.059,0.469,0.828,0.794,���쓌,2.5,��
2018/05/11,07:50,0.815,1.293,0.843,1.560,1.060,0.467,0.826,0.795,���쓌,2.6,��
2018/05/11,08:00,0.817,1.294,0.844,1.558,1.060,0.467,0.825,0.792,���쓌,3.5,��
2018/05/11,08:10,0.815,1.295,0.844,1.561,1.060,0.467,0.823,0.792,��,3.1,��
2018/05/11,08:20,0.816,1.294,0.844,1.562,1.058,0.467,0.825,0.793,��,1.9,��
2018/05/11,08:30,0.816,1.294,0.845,1.562,1.060,0.469,0.826,0.789,�쓌,2.5,��
2018/05/11,08:40,0.816,1.295,0.845,1.563,1.061,0.468,0.827,0.791,�쓌,3.2,��
2018/05/11,08:50,0.817,1.296,0.846,1.564,1.060,0.468,0.826,0.790,��쓌,3.7,��
2018/05/11,09:00,0.816,1.297,0.845,1.563,1.062,0.471,0.826,0.791,��쓌,4.8,��
2018/05/11,09:10,0.817,1.295,0.845,1.564,1.063,0.470,0.825,0.790,��쓌,6.0,��
2018/05/11,09:20,0.818,1.295,0.845,1.564,1.063,0.470,0.827,0.790,��쓌,6.1,��
2018/05/11,09:30,0.819,1.296,0.846,1.567,1.063,0.469,0.826,0.792,��쓌,6.6,��
2018/05/11,09:40,0.819,1.298,0.845,1.563,1.062,0.471,0.826,0.790,�쓌,6.5,��
2018/05/11,09:50,0.819,1.300,0.846,1.564,1.064,0.471,0.826,0.791,��쓌,4.6,��
2018/05/11,10:00,0.819,1.306,0.846,1.566,1.062,0.469,0.828,0.790,�쓌,4.4,��
2018/05/11,10:10,0.819,1.301,0.846,1.566,1.066,0.470,0.829,0.792,��쓌,3.1,��
2018/05/11,10:20,0.822,1.306,0.846,1.569,1.066,0.473,0.828,0.792,��쐼,1.5,��
2018/05/11,10:30,0.822,1.307,0.847,1.565,1.068,0.471,0.828,0.792,�쓌,1.5,��
2018/05/11,10:40,0.821,1.308,0.848,1.570,1.069,0.471,0.832,0.793,��쓌,5.6,��
2018/05/11,10:50,0.821,1.307,0.848,1.570,1.068,0.472,0.830,0.792,��쓌,6.7,��
2018/05/11,11:00,0.824,1.308,0.849,1.568,1.071,0.473,0.829,0.792,��쓌,6.3,��
2018/05/11,11:10,0.822,1.309,0.848,1.564,1.072,0.473,0.830,0.793,��쓌,6.0,��
2018/05/11,11:20,0.824,1.312,0.850,1.563,1.070,0.472,0.828,0.791,��쓌,6.9,��
2018/05/11,11:30,0.824,1.313,0.851,1.564,1.071,0.471,0.830,0.792,��,8.0,��
2018/05/11,11:40,0.825,1.313,0.849,1.566,1.069,0.473,0.830,0.794,��,7.4,��
2018/05/11,11:50,0.827,1.313,0.851,1.567,1.073,0.473,0.830,0.793,��,5.2,��
2018/05/11,12:00,0.825,1.316,0.852,1.568,1.071,0.473,0.832,0.794,��쓌,9.4,��
2018/05/11,12:10,0.826,1.315,0.852,1.570,1.073,0.472,0.832,0.793,��쓌,7.5,��
2018/05/11,12:20,0.826,1.314,0.850,1.570,1.074,0.471,0.830,0.793,��쓌,7.6,��
2018/05/11,12:30,0.828,1.315,0.852,1.571,1.077,0.473,0.830,0.796,��,8.3,��
2018/05/11,12:40,0.826,1.313,0.852,1.570,1.076,0.473,0.830,0.793,��,8.0,��
2018/05/11,12:50,0.829,1.314,0.854,1.570,1.078,0.472,0.829,0.794,��,7.6,��
2018/05/11,13:00,0.828,1.318,0.853,1.571,1.078,0.473,0.832,0.796,��,6.0,��
2018/05/11,13:10,0.828,1.316,0.855,1.571,1.078,0.474,0.832,0.795,��,8.3,��
2018/05/11,13:20,0.829,1.317,0.854,1.572,1.079,0.473,0.832,0.794,��,7.8,��
2018/05/11,13:30,0.830,1.315,0.853,1.570,1.076,0.473,0.830,0.796,��,6.6,��
2018/05/11,13:40,0.830,1.314,0.855,1.574,1.078,0.475,0.830,0.795,��,6.7,��
2018/05/11,13:50,0.832,1.317,0.855,1.573,1.082,0.473,0.831,0.795,��,5.9,��
2018/05/11,14:00,0.831,1.318,0.857,1.574,1.081,0.474,0.832,0.794,��쐼,5.8,��
2018/05/11,14:10,0.832,1.317,0.856,1.577,1.081,0.473,0.831,0.795,��,6.4,��
2018/05/11,14:20,0.831,1.318,0.856,1.573,1.079,0.473,0.832,0.796,��,6.4,��
2018/05/11,14:30,0.832,1.316,0.858,1.576,1.083,0.473,0.832,0.795,��,6.0,��
2018/05/11,14:40,0.832,1.315,0.855,1.576,1.081,0.473,0.833,0.797,��,5.9,��
2018/05/11,14:50,0.830,1.317,0.857,1.575,1.080,0.473,0.833,0.795,��,6.1,��
2018/05/11,15:00,0.832,1.317,0.855,1.576,1.080,0.472,0.830,0.796,��,7.1,��
2018/05/11,15:10,0.832,1.317,0.856,1.577,1.080,0.474,0.833,0.796,��,6.5,��
2018/05/11,15:20,0.831,1.319,0.858,1.575,1.081,0.475,0.831,0.796,��,7.4,��
2018/05/11,15:30,0.833,1.317,0.858,1.576,1.082,0.474,0.830,0.795,��,8.0,��
2018/05/11,15:40,0.833,1.318,0.856,1.576,1.085,0.474,0.832,0.795,��,6.6,��
2018/05/11,15:50,0.835,1.319,0.858,1.579,1.082,0.474,0.831,0.794,��,6.9,��
2018/05/11,16:00,0.835,1.321,0.860,1.578,1.083,0.474,0.833,0.797,��,7.5,��
2018/05/11,16:10,0.836,1.319,0.860,1.578,1.082,0.475,0.831,0.794,��쐼,6.2,��
2018/05/11,16:20,0.836,1.319,0.859,1.579,1.084,0.474,0.831,0.795,��,7.7,��
2018/05/11,16:30,0.836,1.319,0.858,1.580,1.084,0.474,0.832,0.795,��,7.8,��
2018/05/11,16:40,0.833,1.319,0.860,1.581,1.083,0.474,0.832,0.798,��,7.1,��
2018/05/11,16:50,0.833,1.322,0.859,1.577,1.085,0.474,0.832,0.796,��,6.8,��
2018/05/11,17:00,0.834,1.323,0.858,1.579,1.084,0.475,0.833,0.795,��,7.3,��
2018/05/11,17:10,0.834,1.322,0.860,1.577,1.083,0.474,0.832,0.798,��쐼,6.8,��
2018/05/11,17:20,0.833,1.325,0.857,1.578,1.082,0.474,0.832,0.796,��,6.6,��
2018/05/11,17:30,0.835,1.326,0.861,1.577,1.083,0.475,0.832,0.797,��쐼,6.0,��
2018/05/11,17:40,0.834,1.323,0.861,1.580,1.083,0.477,0.831,0.796,��쐼,5.2,��
2018/05/11,17:50,0.832,1.323,0.860,1.578,1.084,0.476,0.832,0.798,�쐼,4.7,��
2018/05/11,18:00,0.832,1.324,0.860,1.578,1.084,0.475,0.832,0.800,�쐼,4.7,��
2018/05/11,18:10,0.832,1.323,0.858,1.580,1.085,0.474,0.831,0.799,���쐼,1.7,��
2018/05/11,18:20,0.832,1.324,0.857,1.582,1.083,0.472,0.831,0.799,���쓌,1.5,��
2018/05/11,18:30,0.833,1.325,0.859,1.580,1.084,0.476,0.832,0.798,�쓌,3.5,��
2018/05/11,18:40,0.835,1.323,0.858,1.579,1.086,0.475,0.833,0.799,�쓌,5.4,��
2018/05/11,18:50,0.836,1.324,0.857,1.582,1.085,0.475,0.830,0.798,�쓌,4.4,��
2018/05/11,19:00,0.833,1.321,0.861,1.583,1.085,0.475,0.831,0.798,�쓌,2.9,��
2018/05/11,19:10,0.835,1.322,0.860,1.579,1.085,0.476,0.830,0.798,��,2.3,��
2018/05/11,19:20,0.836,1.322,0.862,1.582,1.086,0.476,0.833,0.800,��쐼,0.8,��
2018/05/11,19:30,0.836,1.322,0.861,1.581,1.086,0.477,0.832,0.797,��쐼,1.4,��
2018/05/11,19:40,0.836,1.322,0.861,1.581,1.085,0.476,0.835,0.798,��쐼,2.6,��
2018/05/11,19:50,0.837,1.321,0.859,1.584,1.086,0.477,0.832,0.798,���쐼,2.2,��
2018/05/11,20:00,0.834,1.323,0.861,1.582,1.086,0.477,0.836,0.799,��,3.6,��
2018/05/11,20:10,0.834,1.322,0.861,1.581,1.086,0.476,0.835,0.797,��,5.0,��
2018/05/11,20:20,0.835,1.323,0.861,1.583,1.087,0.476,0.837,0.797,��,4.8,��
2018/05/11,20:30,0.837,1.323,0.860,1.584,1.086,0.475,0.834,0.799,���쐼,4.0,��
2018/05/11,20:40,0.836,1.323,0.860,1.583,1.085,0.476,0.834,0.797,�쐼,4.0,��
2018/05/11,20:50,0.834,1.322,0.862,1.581,1.088,0.475,0.834,0.798,��,4.0,��
2018/05/11,21:00,0.834,1.323,0.862,1.584,1.087,0.474,0.832,0.798,�쐼,3.6,��
2018/05/11,21:10,0.838,1.324,0.860,1.583,1.086,0.475,0.834,0.797,��쐼,4.7,��
2018/05/11,21:20,0.836,1.322,0.861,1.585,1.088,0.477,0.833,0.797,��쐼,6.0,��
2018/05/11,21:30,0.834,1.324,0.861,1.584,1.084,0.476,0.833,0.799,��쐼,5.7,��
2018/05/11,21:40,0.835,1.321,0.859,1.582,1.087,0.475,0.834,0.796,��쐼,5.4,��
2018/05/11,21:50,0.834,1.323,0.860,1.584,1.085,0.476,0.833,0.800,��쐼,5.9,��
2018/05/11,22:00,0.836,1.323,0.861,1.582,1.089,0.474,0.833,0.797,��쐼,6.2,��
2018/05/11,22:10,0.835,1.325,0.860,1.584,1.086,0.476,0.833,0.796,�쐼,5.8,��
2018/05/11,22:20,0.835,1.322,0.861,1.583,1.087,0.475,0.835,0.798,�쐼,6.8,��
2018/05/11,22:30,0.837,1.325,0.861,1.584,1.085,0.476,0.835,0.798,�쐼,5.2,��
2018/05/11,22:40,0.835,1.323,0.860,1.585,1.085,0.475,0.835,0.798,��쐼,3.4,��
2018/05/11,22:50,0.836,1.323,0.860,1.582,1.085,0.475,0.833,0.797,��,2.8,��
2018/05/11,23:00,0.836,1.325,0.860,1.582,1.086,0.475,0.835,0.798,��쐼,5.1,��
2018/05/11,23:10,0.835,1.325,0.859,1.584,1.086,0.476,0.834,0.799,��쐼,5.0,��
2018/05/11,23:20,0.837,1.322,0.860,1.581,1.085,0.475,0.835,0.798,��쐼,5.8,��
2018/05/11,23:30,0.836,1.321,0.860,1.582,1.086,0.476,0.835,0.797,�쐼,6.0,��
2018/05/11,23:40,0.835,1.325,0.861,1.585,1.085,0.475,0.834,0.798,�쐼,6.1,��
2018/05/11,23:50,0.836,1.326,0.861,1.584,1.087,0.475,0.834,0.799,�쐼,6.6,��
